Location: Jackson Park
(37.2862°N, 79.9123°W)
Time: 14:49:26
(UTC+00:00)

Vanguard 1 Rocket - Pass Details

Date: 12 May 2026
Orbit: 656 x 4211 km, 34.3° (Epoch: 8 June)

Event Time Altitude Azimuth Distance (km) Brightness Sun altitude
Rises 23:08:09 0° 267° (W) 5,116 12.8 12.5°
Reaches altitude 10° 23:10:49 10° 266° (W) 4,461 12.7 12.0°
Maximum altitude 23:24:29 81° 182° (S) 3,122 10.3 9.4°
Drops below altitude 10° 23:49:11 10° 100° (E) 7,366 11.4 4.7°
Sets 23:55:13 0° 100° (E) 8,451 11.7 3.6°
